This is the latest recevied weather packets stored in our database for station/object SQ5RTW-1. If no packets are shown the sender has not sent any weather packets the latest 10 day(s).
| Time | Temp. | Humidity | Pressure | Rain* | Wind** | Luminosity | Snow |
|---|---|---|---|---|---|---|---|
| 1777300711 | 17.78° C | 22% | 1022.6 hPa | - | - | - | - |
| 1777299810 | 20° C | 21% | 1023.1 hPa | - | - | - | - |
| 1777298909 | 25.56° C | 15% | 1023.2 hPa | - | - | - | - |
| 1777298893 | 27.22° C | 16% | 1023.1 hPa | - | - | - | - |
| 1777298010 | 21.11° C | 18% | 1023.1 hPa | - | - | - | - |
| 1777297109 | 19.44° C | 20% | 1022.8 hPa | - | - | - | - |
| 1777297092 | 20.56° C | 21% | 1022.7 hPa | - | - | - | - |
| 1777296209 | 21.11° C | 20% | 1022.9 hPa | - | - | - | - |
| 1777296193 | 22.22° C | 20% | 1022.9 hPa | - | - | - | - |
| 1777295310 | 19.44° C | 20% | 1023.1 hPa | - | - | - | - |
| 1777294409 | 20.56° C | 20% | 1023.2 hPa | - | - | - | - |
| 1777294393 | 21.67° C | 20% | 1023.3 hPa | - | - | - | - |
| 1777293510 | 18.89° C | 20% | 1023.2 hPa | - | - | - | - |
| 1777292609 | 20° C | 21% | 1023.3 hPa | - | - | - | - |
| 1777292593 | 21.67° C | 21% | 1023.3 hPa | - | - | - | - |
| 1777291858 | 16.11° C | 24% | 1023.2 hPa | - | - | - | - |
| 1777290958 | 21.11° C | 21% | 1023.5 hPa | - | - | - | - |
| 1777290916 | 18.89° C | 22% | 1023.5 hPa | - | - | - | - |
| 1777290016 | 18.33° C | 22% | 1023.5 hPa | - | - | - | - |
| 1777289114 | 18.89° C | 21% | 1023.5 hPa | - | - | - | - |
| 1777288214 | 17.78° C | 23% | 1023.7 hPa | - | - | - | - |
| 1777287313 | 17.78° C | 24% | 1023.7 hPa | - | - | - | - |
| 1777287294 | 16.11° C | 24% | 1023.7 hPa | - | - | - | - |
| 1777286393 | 17.78° C | 23% | 1023.8 hPa | - | - | - | - |
| 1777285492 | 16.67° C | 25% | 1023.9 hPa | - | - | - | - |
* Rain since midnight (hover to see other rain measurements)
** Current wind speed in m/s (hover to see current wind gust speed)